Time,TemperatureF,DewpointF,PressureIn,WindDirection,WindDirectionDegrees,WindSpeedMPH,WindSpeedGustMPH,Humidity,HourlyPrecipIn,Conditions,Clouds,dailyrainin,SoftwareType,DateUTC
2013-03-05 00:01:00,36.5,34.4,30.15,WNW,300,8.0,8.0,92,0.00,,,0.00,Wunderground v.1.15,2013-03-05 06:01:00,
2013-03-05 00:11:00,36.4,34.3,30.15,NW,311,7.0,8.0,92,0.00,,,0.00,Wunderground v.1.15,2013-03-05 06:11:00,
2013-03-05 00:21:00,36.5,34.4,30.16,NW,304,9.0,13.0,92,0.00,,,0.00,Wunderground v.1.15,2013-03-05 06:21:00,
2013-03-05 00:31:00,37.5,32.2,30.17,WNW,300,13.0,13.0,81,0.00,,,0.00,Wunderground v.1.15,2013-03-05 06:31:00,
2013-03-05 00:41:00,38.0,30.4,30.16,North,11,13.0,13.0,74,0.00,,,0.00,Wunderground v.1.15,2013-03-05 06:41:00,
2013-03-05 00:51:00,38.0,28.0,30.16,NNW,330,13.0,19.0,67,0.00,,,0.00,Wunderground v.1.15,2013-03-05 06:51:00,
2013-03-05 01:01:00,37.9,26.0,30.16,NNW,335,15.0,15.0,62,0.00,,,0.00,Wunderground v.1.15,2013-03-05 07:01:00,
2013-03-05 01:11:00,37.5,25.3,30.17,NNW,345,14.0,14.0,61,0.00,,,0.00,Wunderground v.1.15,2013-03-05 07:11:00,
2013-03-05 01:21:00,37.0,24.8,30.17,WNW,300,14.0,16.0,61,0.00,,,0.00,Wunderground v.1.15,2013-03-05 07:21:00,
2013-03-05 01:31:00,36.6,24.0,30.18,NNW,335,14.0,18.0,60,0.00,,,0.00,Wunderground v.1.15,2013-03-05 07:31:00,
2013-03-05 01:41:00,36.4,23.8,30.18,NW,316,15.0,15.0,60,0.00,,,0.00,Wunderground v.1.15,2013-03-05 07:41:00,
2013-03-05 01:51:00,35.9,24.1,30.19,WNW,303,13.0,14.0,62,0.00,,,0.00,Wunderground v.1.15,2013-03-05 07:51:00,
2013-03-05 02:01:00,35.6,24.2,30.20,WNW,303,13.0,18.0,63,0.00,,,0.00,Wunderground v.1.15,2013-03-05 08:01:00,
2013-03-05 02:12:00,35.5,24.1,30.20,NNW,327,13.0,13.0,63,0.00,,,0.00,Wunderground v.1.15,2013-03-05 08:12:00,
2013-03-05 02:22:00,35.4,24.0,30.21,NW,316,13.0,13.0,63,0.00,,,0.00,Wunderground v.1.15,2013-03-05 08:22:00,
2013-03-05 02:32:00,35.0,24.4,30.22,NW,320,13.0,13.0,65,0.00,,,0.00,Wunderground v.1.15,2013-03-05 08:32:00,
2013-03-05 02:42:00,34.7,21.0,30.23,NNW,330,14.0,14.0,57,0.00,,,0.00,Wunderground v.1.15,2013-03-05 08:42:00,
2013-03-05 02:52:00,34.3,19.4,30.24,NNE,27,16.0,16.0,54,0.00,,,0.00,Wunderground v.1.15,2013-03-05 08:52:00,
2013-03-05 03:02:00,33.8,19.7,30.25,NNW,330,14.0,14.0,56,0.00,,,0.00,Wunderground v.1.15,2013-03-05 09:02:00,
2013-03-05 03:11:00,33.4,20.2,30.26,NW,321,11.0,11.0,58,0.00,,,0.00,Wunderground v.1.15,2013-03-05 09:11:00,
2013-03-05 03:21:00,32.9,20.5,30.27,WNW,283,10.0,11.0,60,0.00,,,0.00,Wunderground v.1.15,2013-03-05 09:21:00,
2013-03-05 03:32:00,32.6,19.0,30.27,NW,304,11.0,11.0,57,0.00,,,0.00,Wunderground v.1.15,2013-03-05 09:32:00,
2013-03-05 03:41:00,32.5,17.7,30.27,West,276,13.0,13.0,54,0.00,,,0.00,Wunderground v.1.15,2013-03-05 09:41:00,
2013-03-05 03:51:00,32.2,18.2,30.28,WNW,298,12.0,17.0,56,0.00,,,0.00,Wunderground v.1.15,2013-03-05 09:51:00,
2013-03-05 04:01:00,32.1,18.2,30.28,NNW,330,13.0,13.0,56,0.00,,,0.00,Wunderground v.1.15,2013-03-05 10:01:00,
2013-03-05 04:11:00,31.7,19.0,30.28,WNW,297,12.0,12.0,59,0.00,,,0.00,Wunderground v.1.15,2013-03-05 10:11:00,
2013-03-05 04:21:00,31.1,19.6,30.29,NW,313,10.0,10.0,62,0.00,,,0.00,Wunderground v.1.15,2013-03-05 10:21:00,
2013-03-05 04:31:00,30.8,20.0,30.30,North,352,9.0,9.0,64,0.00,,,0.00,Wunderground v.1.15,2013-03-05 10:31:00,
2013-03-05 04:41:00,30.9,18.6,30.31,NW,317,12.0,12.0,60,0.00,,,0.00,Wunderground v.1.15,2013-03-05 10:41:00,
2013-03-05 04:51:00,30.6,18.7,30.31,NW,310,11.0,11.0,61,0.00,,,0.00,Wunderground v.1.15,2013-03-05 10:51:00,
2013-03-05 05:01:00,30.2,18.7,30.31,NNW,338,9.0,9.0,62,0.00,,,0.00,Wunderground v.1.15,2013-03-05 11:01:00,
2013-03-05 05:11:00,29.9,18.8,30.31,NW,315,9.0,9.0,63,0.00,,,0.00,Wunderground v.1.15,2013-03-05 11:11:00,
2013-03-05 05:21:00,29.7,18.6,30.32,NW,320,8.0,9.0,63,0.00,,,0.00,Wunderground v.1.15,2013-03-05 11:21:00,
2013-03-05 05:31:00,29.7,18.3,30.32,WNW,303,9.0,13.0,62,0.00,,,0.00,Wunderground v.1.15,2013-03-05 11:31:00,
2013-03-05 05:41:00,29.5,18.4,30.33,WNW,300,10.0,10.0,63,0.00,,,0.00,Wunderground v.1.15,2013-03-05 11:41:00,
2013-03-05 05:51:00,29.4,18.0,30.32,NW,316,10.0,10.0,62,0.00,,,0.00,Wunderground v.1.15,2013-03-05 11:51:00,
2013-03-05 06:01:00,29.3,17.9,30.33,NW,308,10.0,13.0,62,0.00,,,0.00,Wunderground v.1.15,2013-03-05 12:01:00,
2013-03-05 06:11:00,29.0,18.3,30.33,WNW,302,11.0,15.0,64,0.00,,,0.00,Wunderground v.1.15,2013-03-05 12:11:00,
2013-03-05 06:22:00,28.6,19.0,30.34,NW,311,10.0,10.0,67,0.00,,,0.00,Wunderground v.1.15,2013-03-05 12:22:00,
2013-03-05 06:32:00,28.1,19.6,30.34,WNW,301,10.0,12.0,70,0.00,,,0.00,Wunderground v.1.15,2013-03-05 12:32:00,
2013-03-05 06:42:00,28.0,19.8,30.34,WNW,302,11.0,11.0,71,0.00,,,0.00,Wunderground v.1.15,2013-03-05 12:42:00,
2013-03-05 06:52:00,27.6,19.8,30.34,WNW,294,10.0,10.0,72,0.00,,,0.00,Wunderground v.1.15,2013-03-05 12:52:00,
2013-03-05 07:02:00,27.5,19.7,30.34,WNW,300,11.0,12.0,72,0.00,,,0.00,Wunderground v.1.15,2013-03-05 13:02:00,
2013-03-05 07:12:00,27.7,19.5,30.34,WNW,300,11.0,11.0,71,0.00,,,0.00,Wunderground v.1.15,2013-03-05 13:12:00,
2013-03-05 07:22:00,28.1,19.6,30.34,WNW,295,11.0,13.0,70,0.00,,,0.00,Wunderground v.1.15,2013-03-05 13:22:00,
2013-03-05 07:31:00,28.4,19.9,30.35,NW,304,12.0,12.0,70,0.00,,,0.00,Wunderground v.1.15,2013-03-05 13:31:00,
2013-03-05 07:41:00,28.9,19.7,30.36,WNW,290,13.0,13.0,68,0.00,,,0.00,Wunderground v.1.15,2013-03-05 13:41:00,
2013-03-05 07:51:00,29.3,19.7,30.36,NW,310,14.0,18.0,67,0.00,,,0.00,Wunderground v.1.15,2013-03-05 13:51:00,
2013-03-05 08:01:00,29.7,19.7,30.37,WNW,295,15.0,16.0,66,0.00,,,0.00,Wunderground v.1.15,2013-03-05 14:01:00,
2013-03-05 08:11:00,30.1,20.1,30.38,NW,312,15.0,15.0,66,0.00,,,0.00,Wunderground v.1.15,2013-03-05 14:11:00,
2013-03-05 08:21:00,30.7,20.3,30.38,NW,309,16.0,16.0,65,0.00,,,0.00,Wunderground v.1.15,2013-03-05 14:21:00,
2013-03-05 08:31:00,31.1,20.0,30.38,WNW,288,17.0,17.0,63,0.00,,,0.00,Wunderground v.1.15,2013-03-05 14:31:00,
2013-03-05 08:41:00,31.5,20.3,30.39,WNW,293,18.0,18.0,63,0.00,,,0.00,Wunderground v.1.15,2013-03-05 14:41:00,
2013-03-05 08:51:00,31.7,19.8,30.40,NW,305,17.0,22.0,61,0.00,,,0.00,Wunderground v.1.15,2013-03-05 14:51:00,
2013-03-05 09:01:00,31.8,20.3,30.40,NW,307,18.0,18.0,62,0.00,,,0.00,Wunderground v.1.15,2013-03-05 15:01:00,
2013-03-05 09:11:00,32.1,20.5,30.40,NW,326,19.0,19.0,62,0.00,,,0.00,Wunderground v.1.15,2013-03-05 15:11:00,
2013-03-05 09:21:00,32.2,19.9,30.40,NW,310,18.0,23.0,60,0.00,,,0.00,Wunderground v.1.15,2013-03-05 15:21:00,
2013-03-05 09:31:00,32.4,20.0,30.40,NW,306,18.0,25.0,60,0.00,,,0.00,Wunderground v.1.15,2013-03-05 15:31:00,
2013-03-05 09:41:00,32.9,20.5,30.40,NW,316,17.0,19.0,60,0.00,,,0.00,Wunderground v.1.15,2013-03-05 15:41:00,
2013-03-05 09:51:00,32.8,20.0,30.40,NNW,331,20.0,20.0,59,0.00,,,0.00,Wunderground v.1.15,2013-03-05 15:51:00,
2013-03-05 10:01:00,33.4,20.2,30.40,NW,320,19.0,19.0,58,0.00,,,0.00,Wunderground v.1.15,2013-03-05 16:01:00,
2013-03-05 10:11:00,33.3,20.1,30.40,NNW,335,20.0,20.0,58,0.00,,,0.00,Wunderground v.1.15,2013-03-05 16:11:00,
2013-03-05 10:21:00,33.4,18.9,30.41,NW,307,20.0,24.0,55,0.00,,,0.00,Wunderground v.1.15,2013-03-05 16:21:00,
2013-03-05 10:31:00,33.7,19.7,30.41,NW,316,18.0,23.0,56,0.00,,,0.00,Wunderground v.1.15,2013-03-05 16:31:00,
2013-03-05 10:42:00,34.1,21.3,30.41,WNW,301,19.0,19.0,59,0.00,,,0.00,Wunderground v.1.15,2013-03-05 16:42:00,
2013-03-05 10:52:00,34.7,20.2,30.41,NNE,23,16.0,19.0,55,0.00,,,0.00,Wunderground v.1.15,2013-03-05 16:52:00,
2013-03-05 11:02:00,34.4,19.9,30.41,WNW,296,18.0,18.0,55,0.00,,,0.00,Wunderground v.1.15,2013-03-05 17:02:00,
2013-03-05 11:12:00,34.9,20.8,30.41,NW,319,19.0,19.0,56,0.00,,,0.00,Wunderground v.1.15,2013-03-05 17:12:00,
2013-03-05 11:22:00,35.1,20.5,30.40,NW,326,16.0,22.0,55,0.00,,,0.00,Wunderground v.1.15,2013-03-05 17:22:00,
2013-03-05 11:32:00,35.3,20.3,30.40,NW,316,17.0,17.0,54,0.00,,,0.00,Wunderground v.1.15,2013-03-05 17:32:00,
2013-03-05 11:41:00,35.7,20.7,30.41,WNW,295,16.0,16.0,54,0.00,,,0.00,Wunderground v.1.15,2013-03-05 17:41:00,
2013-03-05 11:51:00,36.1,21.5,30.42,NW,307,18.0,18.0,55,0.00,,,0.00,Wunderground v.1.15,2013-03-05 17:51:00,
2013-03-05 12:01:00,36.8,21.7,30.42,WNW,293,17.0,25.0,54,0.00,,,0.00,Wunderground v.1.15,2013-03-05 18:01:00,
2013-03-05 12:11:00,36.6,21.5,30.42,NW,321,18.0,18.0,54,0.00,,,0.00,Wunderground v.1.15,2013-03-05 18:11:00,
2013-03-05 12:21:00,36.7,20.7,30.42,West,269,17.0,17.0,52,0.00,,,0.00,Wunderground v.1.15,2013-03-05 18:21:00,
2013-03-05 12:31:00,37.6,22.9,30.42,NW,318,15.0,15.0,55,0.00,,,0.00,Wunderground v.1.15,2013-03-05 18:31:00,
2013-03-05 12:41:00,37.1,21.5,30.42,WNW,300,18.0,23.0,53,0.00,,,0.00,Wunderground v.1.15,2013-03-05 18:41:00,
2013-03-05 12:51:00,37.5,21.9,30.42,North,5,17.0,17.0,53,0.00,,,0.00,Wunderground v.1.15,2013-03-05 18:51:00,
2013-03-05 13:01:00,37.3,22.2,30.41,NW,311,19.0,27.0,54,0.00,,,0.00,Wunderground v.1.15,2013-03-05 19:01:00,
2013-03-05 13:11:00,38.0,23.3,30.41,NNW,328,20.0,26.0,55,0.00,,,0.00,Wunderground v.1.15,2013-03-05 19:11:00,
2013-03-05 13:21:00,38.1,22.5,30.41,NW,307,17.0,17.0,53,0.00,,,0.00,Wunderground v.1.15,2013-03-05 19:21:00,
2013-03-05 13:31:00,38.4,23.2,30.40,NW,314,18.0,18.0,54,0.00,,,0.00,Wunderground v.1.15,2013-03-05 19:31:00,
2013-03-05 13:41:00,38.3,22.2,30.40,NW,311,18.0,18.0,52,0.00,,,0.00,Wunderground v.1.15,2013-03-05 19:41:00,
2013-03-05 13:51:00,38.6,21.5,30.40,NW,311,19.0,22.0,50,0.00,,,0.00,Wunderground v.1.15,2013-03-05 19:51:00,
2013-03-05 14:01:00,38.9,23.2,30.40,NW,305,16.0,16.0,53,0.00,,,0.00,Wunderground v.1.15,2013-03-05 20:01:00,
2013-03-05 14:11:00,39.4,24.6,30.39,WNW,300,17.0,17.0,55,0.00,,,0.00,Wunderground v.1.15,2013-03-05 20:11:00,
2013-03-05 14:21:00,39.8,24.9,30.40,NW,311,16.0,16.0,55,0.00,,,0.00,Wunderground v.1.15,2013-03-05 20:21:00,
2013-03-05 14:31:00,39.4,23.2,30.40,NW,314,16.0,26.0,52,0.00,,,0.00,Wunderground v.1.15,2013-03-05 20:31:00,
2013-03-05 14:41:00,39.6,23.4,30.40,WNW,301,18.0,26.0,52,0.00,,,0.00,Wunderground v.1.15,2013-03-05 20:41:00,
2013-03-05 14:51:00,39.9,23.2,30.40,NW,307,16.0,17.0,51,0.00,,,0.00,Wunderground v.1.15,2013-03-05 20:51:00,
2013-03-05 15:01:00,40.1,23.4,30.40,NW,316,16.0,18.0,51,0.00,,,0.00,Wunderground v.1.15,2013-03-05 21:01:00,
2013-03-05 15:11:00,40.1,23.4,30.40,NW,309,16.0,23.0,51,0.00,,,0.00,Wunderground v.1.15,2013-03-05 21:11:00,
2013-03-05 15:21:00,40.5,23.3,30.40,NW,314,15.0,16.0,50,0.00,,,0.00,Wunderground v.1.15,2013-03-05 21:21:00,
2013-03-05 15:32:00,40.7,23.0,30.40,WNW,300,15.0,17.0,49,0.00,,,0.00,Wunderground v.1.15,2013-03-05 21:32:00,
2013-03-05 15:42:00,40.9,23.2,30.39,NW,313,14.0,14.0,49,0.00,,,0.00,Wunderground v.1.15,2013-03-05 21:42:00,
2013-03-05 15:52:00,41.0,24.2,30.39,WNW,285,15.0,15.0,51,0.00,,,0.00,Wunderground v.1.15,2013-03-05 21:52:00,
2013-03-05 16:02:00,41.3,23.1,30.39,NW,308,12.0,12.0,48,0.00,,,0.00,Wunderground v.1.15,2013-03-05 22:02:00,
2013-03-05 16:12:00,41.3,24.0,30.39,NW,312,15.0,15.0,50,0.00,,,0.00,Wunderground v.1.15,2013-03-05 22:12:00,
2013-03-05 16:22:00,41.4,22.7,30.39,NW,315,12.0,12.0,47,0.00,,,0.00,Wunderground v.1.15,2013-03-05 22:22:00,
2013-03-05 16:31:00,41.4,23.2,30.39,WNW,297,12.0,12.0,48,0.00,,,0.00,Wunderground v.1.15,2013-03-05 22:31:00,
2013-03-05 16:41:00,41.4,22.7,30.39,NW,309,12.0,12.0,47,0.00,,,0.00,Wunderground v.1.15,2013-03-05 22:41:00,
2013-03-05 16:51:00,41.6,23.8,30.39,NW,308,10.0,15.0,49,0.00,,,0.00,Wunderground v.1.15,2013-03-05 22:51:00,
2013-03-05 17:01:00,41.4,22.7,30.39,North,353,13.0,13.0,47,0.00,,,0.00,Wunderground v.1.15,2013-03-05 23:01:00,
2013-03-05 17:11:00,41.3,23.1,30.39,NW,318,11.0,11.0,48,0.00,,,0.00,Wunderground v.1.15,2013-03-05 23:11:00,
2013-03-05 17:21:00,41.3,24.0,30.39,NW,309,10.0,10.0,50,0.00,,,0.00,Wunderground v.1.15,2013-03-05 23:21:00,
2013-03-05 17:32:00,41.2,23.0,30.39,NW,316,8.0,9.0,48,0.00,,,0.00,Wunderground v.1.15,2013-03-05 23:32:00,
2013-03-05 17:42:00,40.6,22.4,30.40,West,278,10.0,10.0,48,0.00,,,0.00,Wunderground v.1.15,2013-03-05 23:42:00,
2013-03-05 17:52:00,40.3,22.6,30.40,NNW,327,10.0,10.0,49,0.00,,,0.00,Wunderground v.1.15,2013-03-05 23:52:00,
2013-03-05 18:01:00,40.0,23.3,30.40,North,352,6.0,6.0,51,0.00,,,0.00,Wunderground v.1.15,2013-03-06 00:01:00,
2013-03-05 18:12:00,39.4,23.7,30.41,NNW,342,6.0,6.0,53,0.00,,,0.00,Wunderground v.1.15,2013-03-06 00:12:00,
2013-03-05 18:21:00,38.3,24.0,30.41,WNW,300,6.0,6.0,56,0.00,,,0.00,Wunderground v.1.15,2013-03-06 00:21:00,
2013-03-05 18:31:00,37.1,24.5,30.42,NW,307,5.0,5.0,60,0.00,,,0.00,Wunderground v.1.15,2013-03-06 00:31:00,
2013-03-05 18:42:00,36.3,24.5,30.42,NW,308,4.0,4.0,62,0.00,,,0.00,Wunderground v.1.15,2013-03-06 00:42:00,
2013-03-05 18:52:00,35.5,24.5,30.43,NW,310,2.0,3.0,64,0.00,,,0.00,Wunderground v.1.15,2013-03-06 00:52:00,
2013-03-05 19:01:00,34.8,24.2,30.43,NW,320,3.0,3.0,65,0.00,,,0.00,Wunderground v.1.15,2013-03-06 01:01:00,
2013-03-05 19:12:00,34.0,24.2,30.43,North,352,3.0,4.0,67,0.00,,,0.00,Wunderground v.1.15,2013-03-06 01:12:00,
2013-03-05 20:11:00,33.5,23.7,30.43,NNW,348,5.0,5.0,67,0.00,,,0.00,Wunderground v.1.15,2013-03-06 02:11:00,
2013-03-05 20:21:00,33.1,23.7,30.44,NW,307,4.0,4.0,68,0.00,,,0.00,Wunderground v.1.15,2013-03-06 02:21:00,
2013-03-05 20:31:00,32.8,23.4,30.44,NW,304,4.0,5.0,68,0.00,,,0.00,Wunderground v.1.15,2013-03-06 02:31:00,
2013-03-05 20:41:00,32.9,23.5,30.44,NW,307,6.0,6.0,68,0.00,,,0.00,Wunderground v.1.15,2013-03-06 02:41:00,
2013-03-05 20:52:00,33.3,23.2,30.44,WNW,300,7.0,7.0,66,0.00,,,0.00,Wunderground v.1.15,2013-03-06 02:52:00,
2013-03-05 21:01:00,33.0,23.2,30.45,NW,322,5.0,5.0,67,0.00,,,0.00,Wunderground v.1.15,2013-03-06 03:01:00,
2013-03-05 21:11:00,32.5,23.1,30.45,WNW,288,4.0,4.0,68,0.00,,,0.00,Wunderground v.1.15,2013-03-06 03:11:00,
2013-03-05 21:21:00,32.9,23.1,30.45,NW,304,5.0,6.0,67,0.00,,,0.00,Wunderground v.1.15,2013-03-06 03:21:00,
2013-03-05 21:32:00,32.6,23.2,30.46,WNW,302,5.0,7.0,68,0.00,,,0.00,Wunderground v.1.15,2013-03-06 03:32:00,
2013-03-05 21:42:00,32.6,23.2,30.47,NNW,329,5.0,5.0,68,0.00,,,0.00,Wunderground v.1.15,2013-03-06 03:42:00,
2013-03-05 21:52:00,32.1,23.1,30.47,NNW,335,3.0,4.0,69,0.00,,,0.00,Wunderground v.1.15,2013-03-06 03:52:00,
2013-03-05 22:02:00,31.5,23.2,30.47,NNW,344,3.0,4.0,71,0.00,,,0.00,Wunderground v.1.15,2013-03-06 04:02:00,
2013-03-05 22:12:00,31.2,23.2,30.47,NNE,18,3.0,3.0,72,0.00,,,0.00,Wunderground v.1.15,2013-03-06 04:12:00,
2013-03-05 22:22:00,30.4,23.1,30.48,NW,319,3.0,3.0,74,0.00,,,0.00,Wunderground v.1.15,2013-03-06 04:22:00,
2013-03-05 22:31:00,30.1,22.8,30.48,North,9,2.0,3.0,74,0.00,,,0.00,Wunderground v.1.15,2013-03-06 04:31:00,
2013-03-05 22:41:00,29.8,22.8,30.48,NNW,343,3.0,3.0,75,0.00,,,0.00,Wunderground v.1.15,2013-03-06 04:41:00,
2013-03-05 22:51:00,29.5,22.6,30.48,North,8,4.0,6.0,75,0.00,,,0.00,Wunderground v.1.15,2013-03-06 04:51:00,
2013-03-05 23:01:00,29.5,22.9,30.48,North,10,5.0,5.0,76,0.00,,,0.00,Wunderground v.1.15,2013-03-06 05:01:00,
2013-03-05 23:11:00,29.9,22.9,30.48,North,1,3.0,3.0,75,0.00,,,0.00,Wunderground v.1.15,2013-03-06 05:11:00,
2013-03-05 23:21:00,29.6,22.6,30.49,North,3,3.0,4.0,75,0.00,,,0.00,Wunderground v.1.15,2013-03-06 05:21:00,
2013-03-05 23:31:00,29.2,22.6,30.48,NNE,25,3.0,3.0,76,0.00,,,0.00,Wunderground v.1.15,2013-03-06 05:31:00,
2013-03-05 23:41:00,29.2,22.6,30.48,NNE,25,4.0,4.0,76,0.00,,,0.00,Wunderground v.1.15,2013-03-06 05:41:00,
2013-03-05 23:51:00,29.5,21.9,30.48,NNE,15,3.0,3.0,73,0.00,,,0.00,Wunderground v.1.15,2013-03-06 05:51:00,